{"data":{"norad_id":41853,"epoch":"2026-09-20T02:38:39.966720Z","epoch_age_seconds":51867,"freshness":"FRESH","line1":"1 41853U 16067F   26263.11018480  .00004835  00000+0  19229-3 0  9998","line2":"2 41853  98.0391 137.6182 0006655  90.9925 269.2074 15.25809784540533","mean_motion":15.25809784,"eccentricity":0.0006655,"inclination_deg":98.0391,"raan_deg":137.6182,"arg_perigee_deg":90.9925,"mean_anomaly_deg":269.2074,"bstar":0.00019229,"rev_number":54053,"period_min":94.376115234034,"perigee_km":483.78523334221,"apogee_km":492.9245340394,"semimajor_km":6866.4918836908,"source":"CELESTRAK","updated_at":"2026-09-20T09:00:48.032139Z"}}